CYTQ

Tasiujaq Airport

ICAO Code CYTQ
IATA Code YTQ
Name Tasiujaq Airport
Location Tasiujaq, Quebec, CA
Elevation 121 Feet / 36.9 Meters
Latitude 58.66777778
Longitude -69.95583333
METAR CYTQ 151800Z 04006KT 2 1/2SM RA BR OVC005 08/08 A2968 RMK FG1ST7 CIG RAG LAST STFD OBS/NEXT OBS 191200UTC SLP055
Extra information Display Charts and CFS
Display NOTAMS
Runway Length Width Surface Elevation
05 3519 ft 100 ft GRAVEL 121 ft
23 3519 ft 100 ft GRAVEL 103 ft